Regional Weather Roundup
Issued by NWS

Home | Current Version | Previous Version | Graphics & Text | Print | Product List | Glossary On
Versions: 1 2 3 4 5 6 7 8 9 10 11 12 13 14 15 16 17 18 19 20 21 22 23 24 25 26 27 28 29 30 31 32 33 34 35 36 37 38 39 40 41 42 43 44 45 46 47 48 49 50
000
ASUS43 KIND 120159
RWRIN

WEATHER ROUNDUP FOR INDIANA
NATIONAL WEATHER SERVICE INDIANAPOLIS IN
900 PM EST THU FEB 11 2016

NOTE: "FAIR" INDICATES FEW OR NO CLOUDS BELOW 12,000 FEET WITH NO
SIGNIFICANT WEATHER AND/OR OBSTRUCTIONS TO VISIBILITY.

* - STATION DOES NOT REPORT WEATHER SUCH AS PRECIPITATION OR FOG.

+ - STATION NOT QUALITY CONTROLLED BY THE NATIONAL WEATHER SERVICE.
    USE DATA WITH CAUTION...ESPECIALLY DEWPOINT AND RELATIVE
    HUMIDITY OBSERVATIONS.

INZ001>003-010>013-019-020-120300-
NORTHWEST INDIANA

CITY           SKY/WX    TMP DP  RH WIND       PRES   REMARKS
GARY /AIRPORT/ CLEAR     18   7  62 S3        30.29F
RENSSELAER +   PTCLDY    21   9  58 SW6       30.29F WCI  14

$$

LMZ046-743>745-120300-
SOUTHERN LAKE MICHIGAN

STATION/POSITION TIME  TEMP    WIND        PRES    WAVE
                       AIR SEA DIR/SP/G            HT
                 (UTC) (F)     (DEG/KT/KT) (MB)    (FT)
BURNS HARBOR     0100   18     120/  3/  4 1026.1S
MICHIGAN CITY    0100   17     120/  3/  4   N/A

$$

INZ004-005-014>016-021>024-120300-
NORTH CENTRAL INDIANA

CITY           SKY/WX    TMP DP  RH WIND       PRES   REMARKS
ELKHART        CLOUDY    10   3  72 CALM      30.28S
GOSHEN         CLEAR     11   3  70 W3        30.27S
SOUTH BEND     CLOUDY     4   0  83 CALM      30.28S

$$

INZ006>009-017-018-025>027-120300-
NORTHEAST INDIANA

CITY           SKY/WX    TMP DP  RH WIND       PRES   REMARKS
ANGOLA *+      CLEAR     16   5  62 W3        30.23S
FORT WAYNE     CLEAR     16   9  74 W6        30.28F WCI   7

$$

INZ028-029-035-036-043>045-051>053-120300-
WEST CENTRAL INDIANA

CITY           SKY/WX    TMP DP  RH WIND       PRES   REMARKS
GREENCASTLE +  CLOUDY    21   5  49 CALM      30.30S
LAFAYETTE      PTCLDY    19   8  62 CALM      30.31R
TERRE HAUTE    PTCLDY    22  13  68 CALM      30.31F

$$

INZ030>032-037>040-046>048-054>057-064-065-120300-
CENTRAL INDIANA

CITY           SKY/WX    TMP DP  RH WIND       PRES   REMARKS
GREENWOOD *+   CLOUDY    21  12  68 S5        30.30S WCI  15
INDIANAPOLIS   CLOUDY    22   9  57 W5        30.28F WCI  16
-EAGLE CREEK   CLOUDY    22  11  62 W6        30.29S WCI  14
KOKOMO *+      CLOUDY    16   7  67 W3        30.28F
MT COMFORT *+  CLOUDY    19  10  68 S6        30.29S WCI  11
SHELBYVILLE    CLOUDY    20   9  62 SE6       30.29F WCI  12

$$

INZ033-034-041-042-049-050-058-059-120300-
EAST CENTRAL INDIANA

CITY           SKY/WX    TMP DP  RH WIND       PRES   REMARKS
MUNCIE         CLOUDY    15   6  67 CALM      30.28F

$$

INZ060-061-067>069-081>083-085>088-120300-
SOUTHWEST INDIANA

CITY           SKY/WX    TMP DP  RH WIND       PRES   REMARKS
EVANSVILLE     CLOUDY    30  13  49 E5        30.31F WCI  25
HUNTINGBURG *+ CLOUDY    27  10  50 N6        30.31F WCI  20

$$

INZ062-063-066-070>080-084-089>092-120300-
SOUTH CENTRAL AND SOUTHEAST INDIANA

CITY           SKY/WX    TMP DP  RH WIND       PRES   REMARKS
BLOOMINGTON    CLOUDY    24   7  48 CALM      30.29S
MADISON *+     CLOUDY    23   9  54 E3        30.32S
SEYMOUR +      MOCLDY    25   9  50 CALM      30.32S

$$




USA.gov is the U.S. government's official web portal to all federal, state and local government web resources and services.